�������l�o���
Date,Time,MP-1(��Sv/h),MP-2(��Sv/h),MP-3(��Sv/h),MP-4(��Sv/h),MP-5(��Sv/h),MP-6(��Sv/h),MP-7(��Sv/h),MP-8(��Sv/h),����,����(m/s),���J
2024/05/19,00:00,0.501,0.768,0.482,0.944,0.685,0.314,0.547,0.513,��,1.5,��
2024/05/19,00:10,0.501,0.768,0.482,0.945,0.685,0.313,0.550,0.512,��쓌,1.2,��
2024/05/19,00:20,0.500,0.767,0.481,0.943,0.688,0.315,0.548,0.512,��,1.9,��
2024/05/19,00:30,0.502,0.764,0.482,0.943,0.685,0.315,0.549,0.512,��,0.8,��
2024/05/19,00:40,0.501,0.766,0.481,0.944,0.686,0.314,0.547,0.512,-,CALM,��
2024/05/19,00:50,0.501,0.767,0.482,0.942,0.687,0.314,0.549,0.513,�k,0.9,��
2024/05/19,01:00,0.499,0.767,0.483,0.944,0.688,0.314,0.548,0.512,�k�k��,1.7,��
2024/05/19,01:10,0.499,0.764,0.481,0.942,0.686,0.315,0.549,0.515,�k��,4.0,��
2024/05/19,01:20,0.502,0.766,0.481,0.944,0.686,0.315,0.548,0.512,�k�k��,4.0,��
2024/05/19,01:30,0.501,0.767,0.482,0.946,0.686,0.316,0.549,0.513,���k��,4.7,��
2024/05/19,01:40,0.502,0.766,0.482,0.945,0.687,0.315,0.549,0.512,�k��,4.1,��
2024/05/19,01:50,0.502,0.766,0.482,0.944,0.687,0.315,0.548,0.513,�k�k��,3.9,��
2024/05/19,02:00,0.500,0.767,0.480,0.945,0.688,0.314,0.549,0.514,�k�k��,2.9,��
2024/05/19,02:10,0.501,0.767,0.482,0.945,0.686,0.314,0.549,0.513,�k��,1.1,��
2024/05/19,02:20,0.500,0.767,0.481,0.945,0.686,0.314,0.549,0.513,��쐼,0.8,��
2024/05/19,02:30,0.502,0.767,0.481,0.943,0.688,0.314,0.548,0.513,��쓌,1.4,��
2024/05/19,02:40,0.501,0.767,0.482,0.944,0.687,0.315,0.549,0.513,��,2.3,��
2024/05/19,02:50,0.500,0.767,0.481,0.944,0.683,0.314,0.549,0.512,��,2.6,��
2024/05/19,03:00,0.501,0.766,0.482,0.946,0.686,0.316,0.549,0.513,��쐼,1.9,��
2024/05/19,03:10,0.500,0.766,0.482,0.945,0.685,0.314,0.551,0.512,��쐼,1.7,��
2024/05/19,03:20,0.501,0.768,0.480,0.944,0.686,0.314,0.550,0.512,��쐼,1.4,��
2024/05/19,03:30,0.502,0.765,0.483,0.946,0.683,0.315,0.550,0.512,�쐼,1.7,��
2024/05/19,03:40,0.500,0.766,0.482,0.944,0.687,0.314,0.547,0.513,���쐼,1.4,��
2024/05/19,03:50,0.502,0.765,0.481,0.945,0.684,0.314,0.548,0.514,���쐼,1.7,��
2024/05/19,04:00,0.499,0.765,0.482,0.943,0.687,0.313,0.547,0.513,���쐼,1.4,��
2024/05/19,04:10,0.501,0.767,0.482,0.945,0.685,0.315,0.548,0.512,��,1.1,��
2024/05/19,04:20,0.501,0.766,0.481,0.944,0.685,0.315,0.549,0.512,�쐼,0.8,��
2024/05/19,04:30,0.501,0.766,0.483,0.944,0.684,0.314,0.547,0.514,���쐼,0.8,��
2024/05/19,04:40,0.501,0.765,0.483,0.944,0.686,0.314,0.549,0.513,�k��,0.9,��
2024/05/19,04:50,0.502,0.767,0.482,0.946,0.685,0.314,0.549,0.514,�k,0.8,��
2024/05/19,05:00,0.500,0.769,0.482,0.943,0.683,0.315,0.549,0.513,-,CALM,��
2024/05/19,05:10,0.501,0.767,0.481,0.943,0.687,0.314,0.548,0.513,-,CALM,��
2024/05/19,05:20,0.501,0.766,0.482,0.944,0.685,0.314,0.549,0.512,-,CALM,��
2024/05/19,05:30,0.501,0.766,0.481,0.944,0.685,0.315,0.549,0.513,�쓌,0.9,��
2024/05/19,05:40,0.500,0.766,0.481,0.945,0.685,0.314,0.548,0.513,��,1.4,��
2024/05/19,05:50,0.501,0.767,0.481,0.946,0.686,0.314,0.548,0.514,��쓌,1.2,��
2024/05/19,06:00,0.501,0.766,0.484,0.944,0.685,0.314,0.549,0.514,-,CALM,��
2024/05/19,06:10,0.500,0.768,0.482,0.943,0.686,0.314,0.551,0.513,-,CALM,��
2024/05/19,06:20,0.502,0.768,0.481,0.945,0.685,0.315,0.550,0.512,-,CALM,��
2024/05/19,06:30,0.500,0.769,0.483,0.947,0.686,0.314,0.548,0.514,-,CALM,��
2024/05/19,06:40,0.500,0.768,0.484,0.944,0.685,0.315,0.549,0.513,��,0.6,��
2024/05/19,06:50,0.502,0.766,0.482,0.943,0.684,0.313,0.549,0.513,-,CALM,��
2024/05/19,07:00,0.501,0.765,0.481,0.946,0.685,0.314,0.550,0.514,-,CALM,��
2024/05/19,07:10,0.501,0.765,0.482,0.945,0.684,0.312,0.549,0.514,-,CALM,��
2024/05/19,07:20,0.500,0.764,0.482,0.946,0.686,0.315,0.549,0.514,��쓌,0.9,��
2024/05/19,07:30,0.499,0.766,0.483,0.945,0.687,0.313,0.547,0.513,�쓌,0.6,��
2024/05/19,07:40,0.500,0.765,0.483,0.947,0.685,0.314,0.547,0.512,-,CALM,��
2024/05/19,07:50,0.500,0.765,0.481,0.947,0.685,0.314,0.548,0.514,-,CALM,��
2024/05/19,08:00,0.498,0.767,0.480,0.947,0.685,0.313,0.547,0.513,�쓌,0.6,��
2024/05/19,08:10,0.500,0.768,0.482,0.946,0.685,0.314,0.547,0.511,��,0.6,��
2024/05/19,08:20,0.500,0.767,0.483,0.946,0.688,0.314,0.547,0.512,�k��,0.6,��
2024/05/19,08:30,0.500,0.767,0.483,0.946,0.686,0.314,0.548,0.512,��,0.9,��
2024/05/19,08:40,0.500,0.767,0.480,0.948,0.686,0.314,0.547,0.513,��,0.9,��
2024/05/19,08:50,0.501,0.767,0.481,0.948,0.686,0.314,0.547,0.512,�쓌,1.7,��
2024/05/19,09:00,0.499,0.766,0.482,0.944,0.685,0.313,0.547,0.511,�쓌,2.0,��
2024/05/19,09:10,0.499,0.767,0.483,0.946,0.686,0.314,0.546,0.512,�쓌,2.0,��
2024/05/19,09:20,0.500,0.767,0.483,0.946,0.685,0.315,0.548,0.511,��쓌,2.3,��
2024/05/19,09:30,0.502,0.767,0.480,0.947,0.686,0.313,0.546,0.513,��쓌,2.8,��
2024/05/19,09:40,0.501,0.767,0.482,0.947,0.687,0.314,0.548,0.513,��쓌,2.6,��
2024/05/19,09:50,0.501,0.769,0.479,0.946,0.684,0.314,0.548,0.512,��쓌,2.3,��
2024/05/19,10:00,0.502,0.768,0.481,0.948,0.686,0.313,0.547,0.512,�쓌,2.2,��
2024/05/19,10:10,0.500,0.768,0.482,0.948,0.686,0.313,0.548,0.511,��쓌,2.5,��
2024/05/19,10:20,0.502,0.769,0.481,0.945,0.685,0.313,0.547,0.512,��쓌,2.6,��
2024/05/19,10:30,0.501,0.769,0.482,0.950,0.685,0.313,0.547,0.511,�쓌,2.0,��
2024/05/19,10:40,0.501,0.769,0.483,0.947,0.688,0.313,0.547,0.511,�쓌,2.9,��
2024/05/19,10:50,0.504,0.767,0.482,0.948,0.688,0.314,0.547,0.513,��쓌,3.2,��
2024/05/19,11:00,0.502,0.771,0.481,0.948,0.687,0.315,0.547,0.511,�쓌,3.5,��
2024/05/19,11:10,0.503,0.768,0.481,0.946,0.689,0.314,0.547,0.511,��쓌,3.2,��
2024/05/19,11:20,0.501,0.768,0.482,0.945,0.687,0.314,0.547,0.511,��쓌,3.5,��
2024/05/19,11:30,0.501,0.769,0.483,0.946,0.688,0.314,0.545,0.512,��,3.1,��
2024/05/19,11:40,0.501,0.768,0.482,0.946,0.685,0.313,0.547,0.513,��쓌,2.6,��
2024/05/19,11:50,0.500,0.770,0.481,0.946,0.688,0.312,0.548,0.512,��쓌,3.7,��
2024/05/19,12:00,0.503,0.767,0.480,0.946,0.688,0.313,0.546,0.512,��쓌,4.1,��
2024/05/19,12:10,0.501,0.768,0.481,0.948,0.686,0.314,0.546,0.511,��,4.5,��
2024/05/19,12:20,0.502,0.767,0.482,0.946,0.686,0.314,0.547,0.511,��쓌,5.9,��
2024/05/19,12:30,0.500,0.767,0.483,0.945,0.685,0.312,0.547,0.513,��,6.6,��
2024/05/19,12:40,0.499,0.768,0.481,0.946,0.687,0.314,0.546,0.513,��쓌,6.6,��
2024/05/19,12:50,0.500,0.767,0.480,0.947,0.687,0.314,0.547,0.511,��,7.9,��
2024/05/19,13:00,0.501,0.768,0.482,0.949,0.687,0.314,0.547,0.513,��,6.1,��
2024/05/19,13:10,0.502,0.766,0.482,0.947,0.689,0.314,0.549,0.512,��,6.3,��
2024/05/19,13:20,0.499,0.768,0.482,0.947,0.687,0.313,0.547,0.511,��,7.6,��
2024/05/19,13:30,0.502,0.768,0.483,0.946,0.690,0.313,0.548,0.511,��,7.4,��
2024/05/19,13:40,0.501,0.767,0.483,0.944,0.688,0.315,0.547,0.511,��,7.6,��
2024/05/19,13:50,0.500,0.767,0.482,0.944,0.688,0.314,0.547,0.511,��,5.0,��
2024/05/19,14:00,0.500,0.770,0.481,0.945,0.687,0.314,0.547,0.513,��,7.6,��
2024/05/19,14:10,0.502,0.767,0.483,0.945,0.688,0.314,0.547,0.512,��,9.3,��
2024/05/19,14:20,0.501,0.768,0.480,0.946,0.688,0.315,0.547,0.512,��,7.0,��
2024/05/19,14:30,0.502,0.767,0.481,0.947,0.689,0.313,0.549,0.511,��,6.2,��
2024/05/19,14:40,0.502,0.766,0.482,0.947,0.687,0.315,0.547,0.512,��,7.2,��
2024/05/19,14:50,0.501,0.769,0.483,0.948,0.688,0.314,0.547,0.511,��,8.6,��
2024/05/19,15:00,0.501,0.767,0.482,0.948,0.689,0.313,0.548,0.512,��,9.0,��
2024/05/19,15:10,0.501,0.768,0.483,0.946,0.689,0.313,0.547,0.512,��,7.7,��
2024/05/19,15:20,0.502,0.767,0.483,0.948,0.688,0.313,0.549,0.511,��,7.2,��
2024/05/19,15:30,0.502,0.769,0.482,0.947,0.688,0.313,0.549,0.512,��쓌,8.8,��
2024/05/19,15:40,0.500,0.767,0.483,0.948,0.687,0.313,0.548,0.512,��쓌,8.8,��
2024/05/19,15:50,0.501,0.767,0.483,0.947,0.687,0.313,0.548,0.511,��,8.4,��
2024/05/19,16:00,0.501,0.768,0.482,0.950,0.688,0.313,0.547,0.511,��,8.4,��
2024/05/19,16:10,0.501,0.766,0.483,0.948,0.688,0.313,0.546,0.511,��,8.7,��
2024/05/19,16:20,0.502,0.767,0.482,0.949,0.687,0.313,0.547,0.512,��쓌,9.3,��
2024/05/19,16:30,0.501,0.768,0.480,0.948,0.687,0.313,0.547,0.512,��쓌,9.3,��
2024/05/19,16:40,0.500,0.767,0.482,0.948,0.689,0.314,0.546,0.512,��,7.5,��
2024/05/19,16:50,0.500,0.766,0.481,0.948,0.686,0.312,0.546,0.513,��쓌,7.3,��
2024/05/19,17:00,0.501,0.767,0.481,0.947,0.688,0.313,0.548,0.512,��,8.3,��
2024/05/19,17:10,0.501,0.767,0.482,0.949,0.689,0.313,0.547,0.511,��,7.1,��
2024/05/19,17:20,0.500,0.768,0.483,0.949,0.689,0.314,0.549,0.511,��,6.8,��
2024/05/19,17:30,0.501,0.767,0.482,0.950,0.688,0.314,0.549,0.511,��,6.7,��
2024/05/19,17:40,0.500,0.769,0.481,0.950,0.688,0.313,0.548,0.513,��,6.5,��
2024/05/19,17:50,0.502,0.768,0.483,0.949,0.688,0.312,0.547,0.514,��,7.1,��
2024/05/19,18:00,0.502,0.768,0.483,0.950,0.689,0.313,0.548,0.515,��,7.4,��
2024/05/19,18:10,0.502,0.769,0.483,0.951,0.689,0.312,0.548,0.513,��쓌,9.2,��
2024/05/19,18:20,0.500,0.769,0.484,0.946,0.687,0.312,0.547,0.514,��,9.9,��
2024/05/19,18:30,0.500,0.767,0.481,0.950,0.687,0.312,0.548,0.514,��,9.3,��
2024/05/19,18:40,0.501,0.767,0.482,0.950,0.687,0.312,0.548,0.513,��,8.6,�L
2024/05/19,18:50,0.501,0.769,0.482,0.949,0.687,0.312,0.548,0.514,��,7.8,�L
2024/05/19,19:00,0.500,0.768,0.482,0.949,0.687,0.313,0.548,0.515,��,5.8,�L
2024/05/19,19:10,0.499,0.769,0.484,0.949,0.688,0.313,0.550,0.513,��,5.7,�L
2024/05/19,19:20,0.502,0.769,0.483,0.951,0.688,0.312,0.547,0.513,��,6.5,�L
2024/05/19,19:30,0.502,0.769,0.483,0.950,0.690,0.313,0.549,0.514,��,8.3,�L
2024/05/19,19:40,0.501,0.770,0.484,0.949,0.691,0.313,0.550,0.515,��,5.4,�L
2024/05/19,19:50,0.503,0.769,0.483,0.949,0.690,0.315,0.549,0.513,��,7.7,�L
2024/05/19,20:00,0.502,0.771,0.483,0.949,0.690,0.313,0.548,0.513,��,7.5,�L
2024/05/19,20:10,0.502,0.771,0.484,0.947,0.689,0.314,0.551,0.514,��,7.2,�L
2024/05/19,20:20,0.502,0.771,0.484,0.949,0.690,0.314,0.549,0.513,��,6.9,�L
2024/05/19,20:30,0.502,0.771,0.483,0.948,0.689,0.312,0.548,0.514,��,6.5,�L
2024/05/19,20:40,0.501,0.773,0.484,0.950,0.691,0.314,0.549,0.514,��,6.4,��
2024/05/19,20:50,0.502,0.770,0.484,0.947,0.690,0.314,0.551,0.515,��,6.2,��
2024/05/19,21:00,0.503,0.771,0.485,0.950,0.690,0.315,0.550,0.513,��,5.8,��
2024/05/19,21:10,0.503,0.771,0.485,0.948,0.691,0.315,0.551,0.514,��,6.4,��
2024/05/19,21:20,0.503,0.772,0.483,0.948,0.689,0.313,0.550,0.514,��,7.3,��
2024/05/19,21:30,0.504,0.771,0.485,0.948,0.692,0.315,0.551,0.514,��,6.3,��
2024/05/19,21:40,0.502,0.772,0.484,0.948,0.691,0.314,0.549,0.514,��,5.4,�L
2024/05/19,21:50,0.501,0.770,0.483,0.950,0.691,0.314,0.549,0.513,��,6.8,�L
2024/05/19,22:00,0.501,0.771,0.484,0.949,0.691,0.312,0.550,0.513,��쓌,8.3,��
2024/05/19,22:10,0.501,0.772,0.483,0.949,0.690,0.313,0.551,0.513,��,7.0,��
2024/05/19,22:20,0.501,0.771,0.483,0.950,0.692,0.314,0.551,0.514,��,5.7,��
2024/05/19,22:30,0.502,0.772,0.483,0.947,0.692,0.315,0.549,0.514,��,5.7,��
2024/05/19,22:40,0.501,0.771,0.484,0.950,0.691,0.313,0.550,0.514,��,6.8,��
2024/05/19,22:50,0.502,0.771,0.485,0.951,0.691,0.315,0.550,0.514,��쓌,7.7,��
2024/05/19,23:00,0.501,0.774,0.483,0.949,0.692,0.313,0.549,0.514,��,7.6,��
2024/05/19,23:10,0.500,0.772,0.483,0.951,0.689,0.315,0.550,0.513,��쐼,6.5,��
2024/05/19,23:20,0.502,0.771,0.484,0.951,0.690,0.314,0.551,0.514,��쐼,7.1,�L
2024/05/19,23:30,0.500,0.772,0.484,0.948,0.690,0.314,0.549,0.514,��쐼,5.8,�L
2024/05/19,23:40,0.502,0.771,0.484,0.948,0.690,0.315,0.550,0.515,��쐼,3.5,�L
2024/05/19,23:50,0.503,0.770,0.483,0.952,0.690,0.316,0.551,0.514,��쐼,2.6,�L
